Location: Hodgeman County Ambulance
(38.0844°N, 99.8949°W)
Time: 00:01:25
(UTC+00:00)

N. Korean satellite - Visible Passes

Search period start: 29 September 2021 00:00
Search period end: 09 October 2021 00:00
Orbit: 449 x 498 km, 97.3° (Epoch: 28 September)

Date Brightness Start Highest point End Pass type
(mag) Time Alt. Az. Time Alt. Az. Time Alt. Az.
29 Sep 9.6 11:07:39 10° NE 11:10:15 19° E 11:12:51 10° SE visible
01 Oct 7.2 11:44:19 10° NNE 11:47:53 60° E 11:51:29 10° S visible
02 Oct 9.1 11:16:56 10° NE 11:19:57 25° E 11:23:00 10° SSE visible
03 Oct 10.1 10:50:50 10° ENE 10:51:56 11° E 10:53:01 10° ESE visible
04 Oct 6.7 11:53:50 10° NNE 11:57:29 83° ESE 12:01:07 10° S visible
05 Oct 8.5 11:26:14 10° NNE 11:29:33 33° E 11:32:52 10° SSE visible
06 Oct 9.9 10:59:22 10° ENE 11:01:30 15° E 11:03:39 10° SE visible
07 Oct 6.5 12:03:18 10° N 12:06:57 72° WNW 12:10:34 10° SSW visible
08 Oct 7.8 11:35:30 10° NNE 11:39:01 45° E 11:42:32 10° S visible
